,,Stat6,,Stat2,,Stat8,,Stat9,,Stat10,,Wind1,,Wind1,
time,status,PA1M_AVG,status,PR1M_SUM,status,RH1M_AVG,status,SR1M_AVG,status,TA1M_AVG,status,W1dAve1m,status,W1sAve1m,
2007-05-19, 00:00:00,VALID,919.128,VALID,0,VALID,100,VALID,0.0339617,VALID,20.7602,VALID,2,VALID,0.393973,
2007-05-19, 00:01:00,VALID,919.128,VALID,0,VALID,100,VALID,0.0339617,VALID,20.7599,VALID,2,VALID,0.437305,
2007-05-19, 00:02:00,VALID,919.128,VALID,0,VALID,100,VALID,0.0169808,VALID,20.7829,VALID,2,VALID,0.176339,
2007-05-19, 00:03:00,VALID,919.132,VALID,0,VALID,100,VALID,0.0339617,VALID,20.7926,VALID,2,VALID,0.00234375,
2007-05-19, 00:04:00,VALID,919.115,VALID,0,VALID,100,VALID,0,VALID,20.7791,VALID,2,VALID,0,
2007-05-19, 00:05:00,VALID,919.094,VALID,0,VALID,100,VALID,0.0509425,VALID,20.7764,VALID,2,VALID,0,
2007-05-19, 00:06:00,VALID,919.072,VALID,0,VALID,100,VALID,0.0679233,VALID,20.7434,VALID,2,VALID,0,
2007-05-19, 00:07:00,VALID,919.05,VALID,0,VALID,99.9888,VALID,0.0509425,VALID,20.7115,VALID,2,VALID,0,
2007-05-19, 00:08:00,VALID,919.032,VALID,0,VALID,99.793,VALID,0.0679233,VALID,20.6463,VALID,2,VALID,0,
2007-05-19, 00:09:00,VALID,919.021,VALID,0,VALID,99.1585,VALID,0,VALID,20.5452,VALID,2,VALID,0.0562855,
2007-05-19, 00:10:00,VALID,919.014,VALID,0,VALID,99.3413,VALID,0.101885,VALID,20.4646,VALID,2,VALID,0.328488,
2007-05-19, 00:11:00,VALID,919.033,VALID,0,VALID,100,VALID,0.101885,VALID,20.542,VALID,353,VALID,0.547585,
2007-05-19, 00:12:00,VALID,919.034,VALID,0,VALID,100,VALID,0.0339617,VALID,20.5487,VALID,352,VALID,0.388529,
2007-05-19, 00:13:00,VALID,919.041,VALID,0,VALID,100,VALID,0.0509425,VALID,20.5098,VALID,352,VALID,0.0509588,
2007-05-19, 00:14:00,VALID,919.032,VALID,0,VALID,100,VALID,-0.0339617,VALID,20.524,VALID,352,VALID,0.0123047,
2007-05-19, 00:15:00,VALID,919.003,VALID,0,VALID,100,VALID,-0.0509425,VALID,20.5116,VALID,352,VALID,0,
2007-05-19, 00:16:00,VALID,918.985,VALID,0,VALID,100,VALID,-0.0679233,VALID,20.5151,VALID,352,VALID,0,
2007-05-19, 00:17:00,VALID,918.948,VALID,0,VALID,100,VALID,-0.0509425,VALID,20.5121,VALID,352,VALID,0,
2007-05-19, 00:18:00,VALID,918.904,VALID,0,VALID,100,VALID,-0.0509425,VALID,20.4886,VALID,352,VALID,0,
2007-05-19, 00:19:00,VALID,918.901,VALID,0,VALID,100,VALID,-0.0679233,VALID,20.4916,VALID,352,VALID,0,
2007-05-19, 00:20:00,VALID,918.859,VALID,0,VALID,100,VALID,-0.0509425,VALID,20.4989,VALID,352,VALID,0,
2007-05-19, 00:21:00,VALID,918.869,VALID,0,VALID,100,VALID,-0.0339617,VALID,20.5248,VALID,352,VALID,0.0523256,
2007-05-19, 00:22:00,VALID,918.854,VALID,0,VALID,100,VALID,-0.0509425,VALID,20.5438,VALID,352,VALID,0.354611,
2007-05-19, 00:23:00,VALID,918.882,VALID,0,VALID,100,VALID,-0.0509425,VALID,20.5048,VALID,352,VALID,0.46782,
2007-05-19, 00:24:00,VALID,918.898,VALID,0,VALID,100,VALID,-0.0679233,VALID,20.4569,VALID,12,VALID,0.588672,
2007-05-19, 00:25:00,VALID,918.9,VALID,0,VALID,100,VALID,-0.0679233,VALID,20.382,VALID,169,VALID,0.428686,
2007-05-19, 00:26:00,VALID,918.913,VALID,0,VALID,100,VALID,-0.0679233,VALID,20.3298,VALID,168,VALID,0.26508,
2007-05-19, 00:27:00,VALID,918.905,VALID,0,VALID,100,VALID,0.0679233,VALID,20.2891,VALID,164,VALID,0.612282,
2007-05-19, 00:28:00,VALID,918.901,VALID,0,VALID,100,VALID,0.0679233,VALID,20.2891,VALID,154,VALID,0.721418,
2007-05-19, 00:29:00,VALID,918.875,VALID,0,VALID,100,VALID,0.0339617,VALID,20.2537,VALID,139,VALID,0.540516,
2007-05-19, 00:30:00,VALID,918.884,VALID,0,VALID,100,VALID,0.0169808,VALID,20.2539,VALID,114,VALID,0.589844,
2007-05-19, 00:31:00,VALID,918.871,VALID,0,VALID,100,VALID,0.0339617,VALID,20.2799,VALID,114,VALID,0.633371,
2007-05-19, 00:32:00,VALID,918.864,VALID,0,VALID,100,VALID,0.0509425,VALID,20.2766,VALID,123,VALID,0.748224,
2007-05-19, 00:33:00,VALID,918.846,VALID,0,VALID,100,VALID,0,VALID,20.2731,VALID,127,VALID,0.457031,
2007-05-19, 00:34:00,VALID,918.837,VALID,0,VALID,100,VALID,0.0169808,VALID,20.2672,VALID,127,VALID,0.331214,
2007-05-19, 00:35:00,VALID,918.828,VALID,0,VALID,100,VALID,0.0339617,VALID,20.1955,VALID,127,VALID,0.22066,
2007-05-19, 00:36:00,VALID,918.833,VALID,0,VALID,100,VALID,0,VALID,20.0397,VALID,127,VALID,0.0338542,
2007-05-19, 00:37:00,VALID,918.81,VALID,0,VALID,100,VALID,0.0169808,VALID,20.0205,VALID,127,VALID,0.0138494,
2007-05-19, 00:38:00,VALID,918.811,VALID,0,VALID,100,VALID,0.0679233,VALID,20.0098,VALID,127,VALID,0,
2007-05-19, 00:39:00,VALID,918.821,VALID,0,VALID,100,VALID,0.0849042,VALID,20.0263,VALID,127,VALID,0.0809152,
2007-05-19, 00:40:00,VALID,918.832,VALID,0,VALID,100,VALID,0.0509425,VALID,20.029,VALID,127,VALID,0.0851562,
2007-05-19, 00:41:00,VALID,918.83,VALID,0,VALID,100,VALID,0.0509425,VALID,20.0422,VALID,127,VALID,0.244606,
2007-05-19, 00:42:00,VALID,918.819,VALID,0,VALID,100,VALID,0.0849042,VALID,20.0687,VALID,127,VALID,0.44478,
2007-05-19, 00:43:00,VALID,918.824,VALID,0,VALID,100,VALID,0.0339617,VALID,20.0752,VALID,127,VALID,0.458507,
2007-05-19, 00:44:00,VALID,918.83,VALID,0,VALID,100,VALID,-0.101885,VALID,20.068,VALID,160,VALID,0.362464,
2007-05-19, 00:45:00,VALID,918.811,VALID,0,VALID,100,VALID,-0.135847,VALID,20.049,VALID,165,VALID,0.327148,
2007-05-19, 00:46:00,VALID,918.805,VALID,0,VALID,100,VALID,-0.152827,VALID,20.0058,VALID,165,VALID,0.37872,
2007-05-19, 00:47:00,VALID,918.796,VALID,0,VALID,100,VALID,-0.118866,VALID,19.9704,VALID,164,VALID,0.756479,
2007-05-19, 00:48:00,VALID,918.792,VALID,0,VALID,100,VALID,-0.186789,VALID,19.9766,VALID,159,VALID,0.707227,
2007-05-19, 00:49:00,VALID,918.786,VALID,0,VALID,100,VALID,-0.135847,VALID,20.0325,VALID,149,VALID,0.677269,
2007-05-19, 00:50:00,VALID,918.78,VALID,0,VALID,100,VALID,-0.186789,VALID,20.1134,VALID,144,VALID,0.403525,
2007-05-19, 00:51:00,VALID,918.775,VALID,0,VALID,100,VALID,-0.118866,VALID,20.1683,VALID,144,VALID,0.183789,
2007-05-19, 00:52:00,VALID,918.78,VALID,0,VALID,100,VALID,-0.135847,VALID,20.1713,VALID,144,VALID,0,
2007-05-19, 00:53:00,VALID,918.774,VALID,0,VALID,100,VALID,-0.135847,VALID,20.1781,VALID,144,VALID,0,
2007-05-19, 00:54:00,VALID,918.777,VALID,0,VALID,100,VALID,-0.135847,VALID,20.1781,VALID,144,VALID,0,
2007-05-19, 00:55:00,VALID,918.77,VALID,0,VALID,100,VALID,-0.135847,VALID,20.1848,VALID,144,VALID,0,
2007-05-19, 00:56:00,VALID,918.753,VALID,0,VALID,100,VALID,-0.169808,VALID,20.1556,VALID,144,VALID,0,
2007-05-19, 00:57:00,VALID,918.762,VALID,0,VALID,100,VALID,-0.152827,VALID,20.1653,VALID,144,VALID,0,
2007-05-19, 00:58:00,VALID,918.741,VALID,0,VALID,100,VALID,-0.118866,VALID,20.201,VALID,144,VALID,0,
2007-05-19, 00:59:00,VALID,918.721,VALID,0,VALID,100,VALID,-0.0509425,VALID,20.18,VALID,144,VALID,0,
2007-05-19, 01:00:00,VALID,918.702,VALID,0,VALID,100,VALID,-0.0509425,VALID,20.1471,VALID,144,VALID,0,
2007-05-19, 01:01:00,VALID,918.682,VALID,0,VALID,100,VALID,-0.0849042,VALID,20.1449,VALID,144,VALID,0,
2007-05-19, 01:02:00,VALID,918.656,VALID,0,VALID,100,VALID,-0.0339617,VALID,20.1119,VALID,144,VALID,0,
2007-05-19, 01:03:00,VALID,918.605,VALID,0,VALID,100,VALID,-0.0509425,VALID,20.0665,VALID,144,VALID,0.104861,
2007-05-19, 01:04:00,VALID,918.57,VALID,0,VALID,100,VALID,-0.101885,VALID,20.0605,VALID,144,VALID,0.308416,
2007-05-19, 01:05:00,VALID,918.526,VALID,0,VALID,100,VALID,-0.0679233,VALID,20.1151,VALID,144,VALID,0.421875,
2007-05-19, 01:06:00,VALID,918.484,VALID,0,VALID,100,VALID,-0.101885,VALID,20.2095,VALID,144,VALID,0.52096,
2007-05-19, 01:07:00,VALID,918.457,VALID,0,VALID,100,VALID,-0.0849042,VALID,20.2609,VALID,144,VALID,0.524287,
2007-05-19, 01:08:00,VALID,918.417,VALID,0,VALID,100,VALID,-0.0509425,VALID,20.225,VALID,144,VALID,0.503906,
2007-05-19, 01:09:00,VALID,918.391,VALID,0,VALID,100,VALID,-0.101885,VALID,20.0502,VALID,140,VALID,0.578819,
2007-05-19, 01:10:00,VALID,918.357,VALID,0,VALID,100,VALID,-0.0509425,VALID,19.9374,VALID,137,VALID,0.623402,
2007-05-19, 01:11:00,VALID,918.347,VALID,0,VALID,100,VALID,-0.0849042,VALID,19.9691,VALID,136,VALID,0.610518,
2007-05-19, 01:12:00,VALID,918.331,VALID,0,VALID,100,VALID,-0.0509425,VALID,20.0467,VALID,132,VALID,0.805778,
2007-05-19, 01:13:00,VALID,918.32,VALID,0,VALID,100,VALID,-0.0509425,VALID,20.0765,VALID,129,VALID,0.954055,
2007-05-19, 01:14:00,VALID,918.3,VALID,0,VALID,100,VALID,-0.0339617,VALID,20.0078,VALID,118,VALID,0.959821,
2007-05-19, 01:15:00,VALID,918.296,VALID,0,VALID,100,VALID,-0.0339617,VALID,19.9332,VALID,130,VALID,1.01029,
2007-05-19, 01:16:00,VALID,918.271,VALID,0,VALID,100,VALID,-0.0339617,VALID,19.8521,VALID,138,VALID,0.951427,
2007-05-19, 01:17:00,VALID,918.262,VALID,0,VALID,100,VALID,-0.0509425,VALID,19.7974,VALID,136,VALID,1.15799,
2007-05-19, 01:18:00,VALID,918.255,VALID,0,VALID,100,VALID,-0.0509425,VALID,19.7966,VALID,134,VALID,1.19354,
2007-05-19, 01:19:00,VALID,918.243,VALID,0,VALID,100,VALID,-0.0169808,VALID,19.8293,VALID,135,VALID,1.00874,
2007-05-19, 01:20:00,VALID,918.262,VALID,0,VALID,100,VALID,-0.0509425,VALID,19.8488,VALID,136,VALID,0.888529,
2007-05-19, 01:21:00,VALID,918.269,VALID,0,VALID,100,VALID,-0.0509425,VALID,19.8615,VALID,134,VALID,0.78468,
2007-05-19, 01:22:00,VALID,918.282,VALID,0,VALID,100,VALID,-0.0339617,VALID,19.8877,VALID,134,VALID,0.795541,
2007-05-19, 01:23:00,VALID,918.293,VALID,0,VALID,100,VALID,-0.0339617,VALID,19.9167,VALID,134,VALID,0.857244,
2007-05-19, 01:24:00,VALID,918.296,VALID,0,VALID,100,VALID,-0.0679233,VALID,19.9462,VALID,146,VALID,0.897529,
2007-05-19, 01:25:00,VALID,918.294,VALID,0,VALID,100,VALID,-0.0509425,VALID,19.9464,VALID,143,VALID,1.00291,
2007-05-19, 01:26:00,VALID,918.281,VALID,0,VALID,100,VALID,0,VALID,19.9364,VALID,143,VALID,1.0261,
2007-05-19, 01:27:00,VALID,918.276,VALID,0,VALID,100,VALID,-0.0169808,VALID,19.9332,VALID,142,VALID,1.05583,
2007-05-19, 01:28:00,VALID,918.269,VALID,0,VALID,100,VALID,-0.101885,VALID,19.9105,VALID,143,VALID,0.920922,
2007-05-19, 01:29:00,VALID,918.258,VALID,0,VALID,100,VALID,0,VALID,19.894,VALID,133,VALID,0.839939,
2007-05-19, 01:30:00,VALID,918.255,VALID,0,VALID,100,VALID,-0.0169808,VALID,19.8813,VALID,127,VALID,0.834121,
2007-05-19, 01:31:00,VALID,918.253,VALID,0,VALID,100,VALID,-0.0169808,VALID,19.878,VALID,135,VALID,0.773777,
2007-05-19, 01:32:00,VALID,918.241,VALID,0,VALID,100,VALID,-0.0339617,VALID,19.9072,VALID,135,VALID,1.13002,
2007-05-19, 01:33:00,VALID,918.219,VALID,0,VALID,100,VALID,-0.0339617,VALID,19.9402,VALID,142,VALID,1.1516,
2007-05-19, 01:34:00,VALID,918.182,VALID,0,VALID,100,VALID,-0.0339617,VALID,19.9462,VALID,144,VALID,0.914063,
2007-05-19, 01:35:00,VALID,918.149,VALID,0,VALID,100,VALID,-0.0169808,VALID,19.9264,VALID,144,VALID,0.833212,
2007-05-19, 01:36:00,VALID,918.125,VALID,0,VALID,100,VALID,-0.0509425,VALID,19.9234,VALID,143,VALID,0.81582,
2007-05-19, 01:37:00,VALID,918.113,VALID,0,VALID,100,VALID,-0.0509425,VALID,19.9234,VALID,136,VALID,0.735352,
2007-05-19, 01:38:00,VALID,918.106,VALID,0,VALID,100,VALID,-0.0339617,VALID,19.9264,VALID,136,VALID,0.78782,
2007-05-19, 01:39:00,VALID,918.105,VALID,0,VALID,100,VALID,-0.0339617,VALID,19.9267,VALID,136,VALID,0.554167,
2007-05-19, 01:40:00,VALID,918.105,VALID,0,VALID,100,VALID,-0.0849042,VALID,19.9467,VALID,136,VALID,0.792683,
2007-05-19, 01:41:00,VALID,918.1,VALID,0,VALID,100,VALID,-0.0339617,VALID,19.9856,VALID,136,VALID,0.788885,
2007-05-19, 01:42:00,VALID,918.111,VALID,0,VALID,100,VALID,-0.0339617,VALID,20.0305,VALID,136,VALID,0.651296,
2007-05-19, 01:43:00,VALID,918.098,VALID,0,VALID,100,VALID,-0.0679233,VALID,20.0595,VALID,136,VALID,0.882631,
2007-05-19, 01:44:00,VALID,918.091,VALID,0,VALID,100,VALID,-0.0679233,VALID,20.0954,VALID,154,VALID,0.806818,
2007-05-19, 01:45:00,VALID,918.08,VALID,0,VALID,100,VALID,-0.0509425,VALID,20.0762,VALID,165,VALID,0.830793,
2007-05-19, 01:46:00,VALID,918.09,VALID,0,VALID,100,VALID,-0.0509425,VALID,20.073,VALID,158,VALID,0.705286,
2007-05-19, 01:47:00,VALID,918.086,VALID,0,VALID,100,VALID,-0.0679233,VALID,20.0992,VALID,155,VALID,0.491257,
2007-05-19, 01:48:00,VALID,918.076,VALID,0,VALID,100,VALID,-0.0509425,VALID,20.0984,VALID,154,VALID,0.298399,
2007-05-19, 01:49:00,VALID,918.067,VALID,0,VALID,100,VALID,-0.0509425,VALID,20.0989,VALID,154,VALID,0.185352,
2007-05-19, 01:50:00,VALID,918.042,VALID,0,VALID,100,VALID,-0.0509425,VALID,20.0924,VALID,154,VALID,0.172061,
2007-05-19, 01:51:00,VALID,918.021,VALID,0,VALID,100,VALID,-0.0509425,VALID,19.9561,VALID,154,VALID,0.00685976,
2007-05-19, 01:52:00,VALID,917.996,VALID,0,VALID,100,VALID,-0.0509425,VALID,19.706,VALID,154,VALID,0,
2007-05-19, 01:53:00,VALID,918.004,VALID,0,VALID,100,VALID,0,VALID,19.6149,VALID,154,VALID,0,
2007-05-19, 01:54:00,VALID,918.011,VALID,0,VALID,100,VALID,0,VALID,19.5992,VALID,154,VALID,0,
2007-05-19, 01:55:00,VALID,918.019,VALID,0,VALID,100,VALID,-0.0169808,VALID,19.5763,VALID,154,VALID,0,
2007-05-19, 01:56:00,VALID,918.012,VALID,0,VALID,100,VALID,-0.0339617,VALID,19.5695,VALID,154,VALID,0,
2007-05-19, 01:57:00,VALID,918,VALID,0,VALID,100,VALID,-0.0169808,VALID,19.593,VALID,154,VALID,0,
2007-05-19, 01:58:00,VALID,917.985,VALID,0,VALID,100,VALID,0,VALID,19.5825,VALID,154,VALID,0,
2007-05-19, 01:59:00,VALID,917.959,VALID,0,VALID,100,VALID,-0.0339617,VALID,19.5503,VALID,154,VALID,0,
2007-05-19, 02:00:00,VALID,917.925,VALID,0,VALID,100,VALID,0,VALID,19.5468,VALID,154,VALID,0.151367,
2007-05-19, 02:01:00,VALID,917.904,VALID,0,VALID,100,VALID,-0.0169808,VALID,19.6312,VALID,154,VALID,0.417387,
2007-05-19, 02:02:00,VALID,917.877,VALID,0,VALID,100,VALID,0,VALID,19.6569,VALID,154,VALID,0.651414,
2007-05-19, 02:03:00,VALID,917.87,VALID,0,VALID,100,VALID,0,VALID,19.6571,VALID,154,VALID,0.761814,
2007-05-19, 02:04:00,VALID,917.859,VALID,0,VALID,100,VALID,0,VALID,19.706,VALID,152,VALID,0.6625,
2007-05-19, 02:05:00,VALID,917.862,VALID,0,VALID,100,VALID,-0.0169808,VALID,19.7417,VALID,151,VALID,0.613814,
2007-05-19, 02:06:00,VALID,917.851,VALID,0,VALID,100,VALID,-0.0339617,VALID,19.7417,VALID,149,VALID,0.584604,
2007-05-19, 02:07:00,VALID,917.845,VALID,0,VALID,100,VALID,0,VALID,19.7352,VALID,141,VALID,0.443314,
2007-05-19, 02:08:00,VALID,917.832,VALID,0,VALID,100,VALID,0,VALID,19.6928,VALID,141,VALID,0.868712,
2007-05-19, 02:09:00,VALID,917.819,VALID,0,VALID,100,VALID,-0.0509425,VALID,19.6868,VALID,134,VALID,1.12798,
2007-05-19, 02:10:00,VALID,917.816,VALID,0,VALID,100,VALID,0,VALID,19.7123,VALID,129,VALID,1.1369,
2007-05-19, 02:11:00,VALID,917.818,VALID,0,VALID,100,VALID,0,VALID,19.7188,VALID,128,VALID,1.07333,
2007-05-19, 02:12:00,VALID,917.798,VALID,0,VALID,100,VALID,-0.0169808,VALID,19.7123,VALID,123,VALID,0.930259,
2007-05-19, 02:13:00,VALID,917.782,VALID,0,VALID,100,VALID,0.0169808,VALID,19.6831,VALID,132,VALID,0.92024,
2007-05-19, 02:14:00,VALID,917.794,VALID,0,VALID,100,VALID,-0.0679233,VALID,19.6649,VALID,131,VALID,0.892721,
2007-05-19, 02:15:00,VALID,917.764,VALID,0,VALID,100,VALID,-0.101885,VALID,19.6354,VALID,123,VALID,0.827762,
2007-05-19, 02:16:00,VALID,917.731,VALID,0,VALID,100,VALID,-0.0679233,VALID,19.6519,VALID,124,VALID,1.06176,
2007-05-19, 02:17:00,VALID,917.693,VALID,0,VALID,100,VALID,-0.0849042,VALID,19.6526,VALID,125,VALID,0.897852,
2007-05-19, 02:18:00,VALID,917.672,VALID,0,VALID,100,VALID,-0.118866,VALID,19.6197,VALID,125,VALID,0.87128,
2007-05-19, 02:19:00,VALID,917.627,VALID,0,VALID,100,VALID,-0.101885,VALID,19.6227,VALID,125,VALID,0.922057,
2007-05-19, 02:20:00,VALID,917.613,VALID,0,VALID,100,VALID,-0.118866,VALID,19.6132,VALID,142,VALID,0.998998,
2007-05-19, 02:21:00,VALID,917.604,VALID,0,VALID,100,VALID,-0.101885,VALID,19.6357,VALID,147,VALID,0.879573,
2007-05-19, 02:22:00,VALID,917.605,VALID,0,VALID,100,VALID,-0.101885,VALID,19.6424,VALID,141,VALID,0.567708,
2007-05-19, 02:23:00,VALID,917.605,VALID,0,VALID,100,VALID,-0.135847,VALID,19.6554,VALID,156,VALID,1.11808,
2007-05-19, 02:24:00,VALID,917.599,VALID,0,VALID,100,VALID,-0.0849042,VALID,19.6748,VALID,153,VALID,0.836338,
2007-05-19, 02:25:00,VALID,917.61,VALID,0,VALID,100,VALID,-0.101885,VALID,19.6903,VALID,156,VALID,0.849019,
2007-05-19, 02:26:00,VALID,917.613,VALID,0,VALID,100,VALID,-0.118866,VALID,19.6973,VALID,151,VALID,0.97526,
2007-05-19, 02:27:00,VALID,917.625,VALID,0,VALID,100,VALID,-0.101885,VALID,19.717,VALID,154,VALID,0.412946,
2007-05-19, 02:28:00,VALID,917.635,VALID,0,VALID,100,VALID,-0.118866,VALID,19.7073,VALID,138,VALID,0.588605,
2007-05-19, 02:29:00,VALID,917.639,VALID,0,VALID,100,VALID,-0.0509425,VALID,19.7093,VALID,136,VALID,0.606997,
2007-05-19, 02:30:00,VALID,917.639,VALID,0,VALID,100,VALID,-0.0169808,VALID,19.7025,VALID,136,VALID,0.30522,
2007-05-19, 02:31:00,VALID,917.631,VALID,0,VALID,100,VALID,-0.0169808,VALID,19.703,VALID,153,VALID,0.899926,
2007-05-19, 02:32:00,VALID,917.639,VALID,0,VALID,100,VALID,-0.0169808,VALID,19.6961,VALID,160,VALID,1.01209,
2007-05-19, 02:33:00,VALID,917.633,VALID,0,VALID,100,VALID,0,VALID,19.6828,VALID,158,VALID,1.19442,
2007-05-19, 02:34:00,VALID,917.629,VALID,0,VALID,100,VALID,0,VALID,19.6796,VALID,157,VALID,1.25242,
2007-05-19, 02:35:00,VALID,917.621,VALID,0,VALID,100,VALID,0.0169808,VALID,19.6796,VALID,165,VALID,1.01458,
2007-05-19, 02:36:00,VALID,917.599,VALID,0,VALID,100,VALID,-0.0169808,VALID,19.6931,VALID,163,VALID,1.24288,
2007-05-19, 02:37:00,VALID,917.592,VALID,0,VALID,100,VALID,0,VALID,19.6993,VALID,161,VALID,1.40015,
2007-05-19, 02:38:00,VALID,917.579,VALID,0,VALID,100,VALID,-0.0339617,VALID,19.7063,VALID,147,VALID,1.32102,
2007-05-19, 02:39:00,VALID,917.58,VALID,0,VALID,100,VALID,0,VALID,19.6993,VALID,146,VALID,1.09598,
2007-05-19, 02:40:00,VALID,917.581,VALID,0,VALID,100,VALID,0,VALID,19.6991,VALID,145,VALID,1.09851,
2007-05-19, 02:41:00,VALID,917.586,VALID,0,VALID,100,VALID,-0.0169808,VALID,19.6996,VALID,152,VALID,0.99907,
2007-05-19, 02:42:00,VALID,917.597,VALID,0,VALID,100,VALID,-0.0169808,VALID,19.7023,VALID,164,VALID,1.05541,
2007-05-19, 02:43:00,VALID,917.599,VALID,0,VALID,100,VALID,-0.0509425,VALID,19.7158,VALID,160,VALID,0.905401,
2007-05-19, 02:44:00,VALID,917.609,VALID,0,VALID,100,VALID,0,VALID,19.7285,VALID,149,VALID,1.48783,
2007-05-19, 02:45:00,VALID,917.615,VALID,0,VALID,100,VALID,0.0169808,VALID,19.7315,VALID,157,VALID,1.375,
2007-05-19, 02:46:00,VALID,917.622,VALID,0,VALID,100,VALID,-0.0169808,VALID,19.7382,VALID,151,VALID,0.912348,
2007-05-19, 02:47:00,VALID,917.623,VALID,0,VALID,100,VALID,-0.0169808,VALID,19.7382,VALID,150,VALID,0.866211,
2007-05-19, 02:48:00,VALID,917.647,VALID,0,VALID,100,VALID,0.0169808,VALID,19.7445,VALID,146,VALID,0.957667,
2007-05-19, 02:49:00,VALID,917.661,VALID,0,VALID,100,VALID,0,VALID,19.751,VALID,150,VALID,0.920486,
2007-05-19, 02:50:00,VALID,917.686,VALID,0,VALID,100,VALID,-0.0169808,VALID,19.7477,VALID,127,VALID,0.554332,
2007-05-19, 02:51:00,VALID,917.703,VALID,0,VALID,100,VALID,-0.0169808,VALID,19.7577,VALID,143,VALID,0.802557,
2007-05-19, 02:52:00,VALID,917.733,VALID,0,VALID,100,VALID,0,VALID,19.7674,VALID,139,VALID,0.707919,
2007-05-19, 02:53:00,VALID,917.753,VALID,0,VALID,100,VALID,0,VALID,19.7804,VALID,145,VALID,0.647166,
2007-05-19, 02:54:00,VALID,917.763,VALID,0,VALID,100,VALID,0,VALID,19.7902,VALID,134,VALID,0.819271,
2007-05-19, 02:55:00,VALID,917.774,VALID,0,VALID,100,VALID,0.0169808,VALID,19.7902,VALID,124,VALID,0.26944,
2007-05-19, 02:56:00,VALID,917.78,VALID,0,VALID,100,VALID,-0.0169808,VALID,19.7969,VALID,116,VALID,0.493862,
2007-05-19, 02:57:00,VALID,917.785,VALID,0,VALID,100,VALID,-0.0339617,VALID,19.7872,VALID,114,VALID,0.548549,
2007-05-19, 02:58:00,VALID,917.799,VALID,0,VALID,100,VALID,0,VALID,19.7704,VALID,112,VALID,0.237645,
2007-05-19, 02:59:00,VALID,917.813,VALID,0,VALID,100,VALID,0.0169808,VALID,19.7642,VALID,114,VALID,0.81875,
2007-05-19, 03:00:00,VALID,917.826,VALID,0,VALID,100,VALID,0,VALID,19.7575,VALID,128,VALID,0.833203,
2007-05-19, 03:01:00,VALID,917.831,VALID,0,VALID,100,VALID,0,VALID,19.7674,VALID,123,VALID,0.839658,
2007-05-19, 03:02:00,VALID,917.826,VALID,0,VALID,100,VALID,0.0339617,VALID,19.7669,VALID,131,VALID,0.693266,
2007-05-19, 03:03:00,VALID,917.836,VALID,0,VALID,100,VALID,-0.0169808,VALID,19.7702,VALID,132,VALID,0.825,
2007-05-19, 03:04:00,VALID,917.822,VALID,0,VALID,100,VALID,-0.0169808,VALID,19.7899,VALID,129,VALID,0.71968,
2007-05-19, 03:05:00,VALID,917.814,VALID,0,VALID,100,VALID,-0.0339617,VALID,19.7934,VALID,127,VALID,1.05183,
2007-05-19, 03:06:00,VALID,917.796,VALID,0,VALID,100,VALID,0,VALID,19.7837,VALID,148,VALID,0.752046,
2007-05-19, 03:07:00,VALID,917.792,VALID,0,VALID,100,VALID,0.0169808,VALID,19.7899,VALID,143,VALID,0.504687,
2007-05-19, 03:08:00,VALID,917.773,VALID,0,VALID,100,VALID,-0.0169808,VALID,19.7936,VALID,151,VALID,0.748512,
2007-05-19, 03:09:00,VALID,917.758,VALID,0,VALID,100,VALID,-0.0339617,VALID,19.7837,VALID,152,VALID,0.737165,
2007-05-19, 03:10:00,VALID,917.756,VALID,0,VALID,100,VALID,0,VALID,19.7869,VALID,163,VALID,0.700581,
2007-05-19, 03:11:00,VALID,917.759,VALID,0,VALID,100,VALID,-0.0169808,VALID,19.7969,VALID,165,VALID,0.59189,
2007-05-19, 03:12:00,VALID,917.766,VALID,0,VALID,100,VALID,-0.0169808,VALID,19.7899,VALID,135,VALID,0.732279,
2007-05-19, 03:13:00,VALID,917.766,VALID,0,VALID,100,VALID,-0.0339617,VALID,19.7739,VALID,132,VALID,0.895241,
2007-05-19, 03:14:00,VALID,917.773,VALID,0,VALID,100,VALID,-0.0169808,VALID,19.7737,VALID,123,VALID,0.625,
2007-05-19, 03:15:00,VALID,917.771,VALID,0,VALID,100,VALID,-0.0169808,VALID,19.7869,VALID,106,VALID,1.04015,
2007-05-19, 03:16:00,VALID,917.792,VALID,0,VALID,100,VALID,0.0169808,VALID,19.7934,VALID,122,VALID,0.589026,
2007-05-19, 03:17:00,VALID,917.801,VALID,0,VALID,100,VALID,0,VALID,19.7837,VALID,122,VALID,0.737571,
2007-05-19, 03:18:00,VALID,917.803,VALID,0,VALID,100,VALID,-0.0169808,VALID,19.7804,VALID,123,VALID,0.723684,
2007-05-19, 03:19:00,VALID,917.801,VALID,0,VALID,100,VALID,0,VALID,19.7809,VALID,130,VALID,0.807776,
2007-05-19, 03:20:00,VALID,917.798,VALID,0,VALID,100,VALID,-0.0509425,VALID,19.7672,VALID,124,VALID,0.795573,
2007-05-19, 03:21:00,VALID,917.793,VALID,0,VALID,100,VALID,-0.0169808,VALID,19.7577,VALID,108,VALID,0.673781,
2007-05-19, 03:22:00,VALID,917.778,VALID,0,VALID,100,VALID,0,VALID,19.7412,VALID,126,VALID,0.894531,
2007-05-19, 03:23:00,VALID,917.784,VALID,0,VALID,100,VALID,-0.0169808,VALID,19.7253,VALID,126,VALID,0.93532,
2007-05-19, 03:24:00,VALID,917.792,VALID,0,VALID,100,VALID,0,VALID,19.712,VALID,131,VALID,0.793064,
2007-05-19, 03:25:00,VALID,917.812,VALID,0,VALID,100,VALID,-0.0509425,VALID,19.706,VALID,130,VALID,0.905717,
2007-05-19, 03:26:00,VALID,917.837,VALID,0,VALID,100,VALID,-0.0169808,VALID,19.6958,VALID,135,VALID,1.04583,
2007-05-19, 03:27:00,VALID,917.866,VALID,0,VALID,100,VALID,-0.0509425,VALID,19.6996,VALID,147,VALID,0.579144,
2007-05-19, 03:28:00,VALID,917.881,VALID,0,VALID,100,VALID,-0.0169808,VALID,19.7025,VALID,152,VALID,0.753049,
2007-05-19, 03:29:00,VALID,917.875,VALID,0,VALID,100,VALID,-0.0169808,VALID,19.7028,VALID,145,VALID,1.05335,
2007-05-19, 03:30:00,VALID,917.845,VALID,0,VALID,100,VALID,-0.0339617,VALID,19.6961,VALID,144,VALID,0.962109,
2007-05-19, 03:31:00,VALID,917.817,VALID,0,VALID,100,VALID,0.0169808,VALID,19.6991,VALID,145,VALID,1.20258,
2007-05-19, 03:32:00,VALID,917.803,VALID,0,VALID,100,VALID,-0.0339617,VALID,19.7025,VALID,136,VALID,1.24628,
2007-05-19, 03:33:00,VALID,917.794,VALID,0,VALID,100,VALID,-0.0169808,VALID,19.6958,VALID,136,VALID,0.910511,
2007-05-19, 03:34:00,VALID,917.791,VALID,0,VALID,100,VALID,-0.0169808,VALID,19.6993,VALID,148,VALID,0.824306,
2007-05-19, 03:35:00,VALID,917.792,VALID,0,VALID,100,VALID,-0.0339617,VALID,19.7155,VALID,157,VALID,0.960211,
2007-05-19, 03:36:00,VALID,917.815,VALID,0,VALID,100,VALID,0,VALID,19.7253,VALID,150,VALID,1.21112,
2007-05-19, 03:37:00,VALID,917.798,VALID,0,VALID,100,VALID,0,VALID,19.725,VALID,147,VALID,1.36547,
2007-05-19, 03:38:00,VALID,917.78,VALID,0,VALID,100,VALID,-0.0169808,VALID,19.732,VALID,132,VALID,1.26079,
2007-05-19, 03:39:00,VALID,917.771,VALID,0,VALID,100,VALID,0,VALID,19.7285,VALID,136,VALID,1.36026,
2007-05-19, 03:40:00,VALID,917.75,VALID,0,VALID,100,VALID,0,VALID,19.722,VALID,137,VALID,1.32617,